Wetterdaten: Mittwoch / Donnerstag, 25.07.2019
Datum Zeit Temp. Aussen Temp. o. S. +5cm Feuchte Auss Luftdruck Regen Sonnenschein Regendauer Solar Windben Empfang
24.07.2019 07:00 22,0 C 21,7 C 20,6 C 74 % 1014,8 hPa 0,0 l/m 0 min 0 min 30 W/m 9,7 km/h (2 Bft) 97,83 %
24.07.2019 07:02 22,0 C 21,7 C 20,6 C 74 % 1014,8 hPa 0,0 l/m 0 min 0 min 32 W/m 6,4 km/h (2 Bft) 97,22 %
24.07.2019 07:04 22,0 C 21,7 C 20,6 C 74 % 1014,8 hPa 0,0 l/m 0 min 0 min 32 W/m 9,7 km/h (2 Bft) 95,65 %
24.07.2019 07:06 22,0 C 21,7 C 20,6 C 74 % 1014,8 hPa 0,0 l/m 0 min 0 min 33 W/m 6,4 km/h (2 Bft) 98,11 %
24.07.2019 07:08 22,1 C 21,7 C 21,1 C 75 % 1014,8 hPa 0,0 l/m 0 min 0 min 33 W/m 6,4 km/h (2 Bft) 96,00 %
24.07.2019 07:10 22,1 C 21,7 C 21,1 C 75 % 1014,9 hPa 0,0 l/m 0 min 0 min 33 W/m 6,4 km/h (2 Bft) 96,00 %
24.07.2019 07:12 22,1 C 22,2 C 21,1 C 75 % 1014,9 hPa 0,0 l/m 0 min 0 min 33 W/m 6,4 km/h (2 Bft) 97,83 %
24.07.2019 07:14 22,1 C 22,2 C 21,1 C 75 % 1014,9 hPa 0,0 l/m 0 min 0 min 33 W/m 9,7 km/h (2 Bft) 97,87 %
24.07.2019 07:16 22,2 C 22,2 C 21,7 C 74 % 1014,8 hPa 0,0 l/m 0 min 0 min 33 W/m 9,7 km/h (2 Bft) 97,14 %
24.07.2019 07:18 22,2 C 22,2 C 21,7 C 75 % 1014,8 hPa 0,0 l/m 0 min 0 min 33 W/m 9,7 km/h (2 Bft) 98,11 %
24.07.2019 07:20 22,2 C 22,2 C 21,7 C 74 % 1014,8 hPa 0,0 l/m 0 min 0 min 33 W/m 9,7 km/h (2 Bft) 98,00 %
24.07.2019 07:22 22,2 C 22,2 C 21,7 C 74 % 1014,8 hPa 0,0 l/m 0 min 0 min 33 W/m 6,4 km/h (2 Bft) 97,87 %
24.07.2019 07:24 22,3 C 22,2 C 21,7 C 74 % 1014,8 hPa 0,0 l/m 0 min 0 min 33 W/m 6,4 km/h (2 Bft) 97,96 %
24.07.2019 07:26 22,3 C 22,8 C 21,7 C 74 % 1014,8 hPa 0,0 l/m 0 min 0 min 33 W/m 9,7 km/h (2 Bft) 100,00 %
24.07.2019 07:28 22,4 C 22,8 C 21,7 C 74 % 1014,9 hPa 0,0 l/m 0 min 0 min 33 W/m 9,7 km/h (2 Bft) 100,00 %
24.07.2019 07:30 22,4 C 22,8 C 21,7 C 74 % 1014,9 hPa 0,0 l/m 0 min 0 min 33 W/m 9,7 km/h (2 Bft) 100,00 %
24.07.2019 07:32 22,5 C 22,8 C 21,7 C 74 % 1014,9 hPa 0,0 l/m 0 min 0 min 33 W/m 9,7 km/h (2 Bft) 97,87 %
24.07.2019 07:34 22,5 C 22,8 C 22,2 C 74 % 1014,9 hPa 0,0 l/m 0 min 0 min 33 W/m 9,7 km/h (2 Bft) 100,00 %
24.07.2019 07:36 22,6 C 22,8 C 22,2 C 74 % 1014,9 hPa 0,0 l/m 0 min 0 min 33 W/m 9,7 km/h (2 Bft) 97,87 %
24.07.2019 07:38 22,6 C 22,8 C 22,2 C 74 % 1014,9 hPa 0,0 l/m 0 min 0 min 36 W/m 6,4 km/h (2 Bft) 97,96 %
24.07.2019 07:40 22,7 C 22,8 C 22,2 C 74 % 1014,9 hPa 0,0 l/m 0 min 0 min 38 W/m 6,4 km/h (2 Bft) 98,00 %
24.07.2019 07:42 22,7 C 23,3 C 22,2 C 74 % 1014,8 hPa 0,0 l/m 0 min 0 min 41 W/m 9,7 km/h (2 Bft) 97,14 %
24.07.2019 07:44 22,8 C 23,3 C 22,2 C 73 % 1014,8 hPa 0,0 l/m 0 min 0 min 44 W/m 9,7 km/h (2 Bft) 98,11 %
24.07.2019 07:46 22,8 C 23,3 C 22,2 C 73 % 1014,9 hPa 0,0 l/m 0 min 0 min 44 W/m 6,4 km/h (2 Bft) 97,87 %
24.07.2019 07:48 22,9 C 23,3 C 22,2 C 73 % 1014,9 hPa 0,0 l/m 0 min 0 min 44 W/m 6,4 km/h (2 Bft) 97,87 %
24.07.2019 07:50 22,9 C 23,3 C 22,8 C 73 % 1014,8 hPa 0,0 l/m 0 min 0 min 46 W/m 9,7 km/h (2 Bft) 97,96 %
24.07.2019 07:52 23,0 C 23,3 C 22,8 C 73 % 1014,9 hPa 0,0 l/m 0 min 0 min 46 W/m 6,4 km/h (2 Bft) 97,37 %
24.07.2019 07:54 23,1 C 23,9 C 22,8 C 73 % 1014,9 hPa 0,0 l/m 0 min 0 min 46 W/m 12,9 km/h (3 Bft) 95,74 %
24.07.2019 07:56 23,2 C 23,9 C 22,8 C 72 % 1014,9 hPa 0,0 l/m 0 min 0 min 47 W/m 6,4 km/h (2 Bft) 94,34 %
24.07.2019 07:58 23,2 C 23,9 C 22,8 C 72 % 1014,9 hPa 0,0 l/m 0 min 0 min 47 W/m 9,7 km/h (2 Bft) 96,00 %
24.07.2019 08:00 23,3 C 23,9 C 22,8 C 72 % 1014,9 hPa 0,0 l/m 0 min 0 min 50 W/m 9,7 km/h (2 Bft) 95,74 %
24.07.2019 08:02 23,3 C 23,9 C 23,3 C 71 % 1014,9 hPa 0,0 l/m 0 min 0 min 50 W/m 9,7 km/h (2 Bft) 95,92 %
24.07.2019 08:04 23,4 C 24,4 C 23,3 C 71 % 1014,9 hPa 0,0 l/m 0 min 0 min 49 W/m 9,7 km/h (2 Bft) 95,74 %
24.07.2019 08:06 23,5 C 24,4 C 23,3 C 71 % 1014,9 hPa 0,0 l/m 0 min 0 min 49 W/m 16,1 km/h (3 Bft) 95,74 %
24.07.2019 08:08 23,6 C 24,4 C 23,3 C 71 % 1014,9 hPa 0,0 l/m 0 min 0 min 49 W/m 6,4 km/h (2 Bft) 97,14 %
24.07.2019 08:10 23,7 C 24,4 C 23,3 C 71 % 1014,9 hPa 0,0 l/m 0 min 0 min 50 W/m 12,9 km/h (3 Bft) 96,23 %
24.07.2019 08:12 23,8 C 24,4 C 23,3 C 70 % 1014,9 hPa 0,0 l/m 0 min 0 min 51 W/m 6,4 km/h (2 Bft) 94,00 %
24.07.2019 08:14 23,8 C 25,0 C 23,3 C 70 % 1014,8 hPa 0,0 l/m 0 min 0 min 51 W/m 9,7 km/h (2 Bft) 95,92 %
24.07.2019 08:16 23,9 C 25,0 C 23,3 C 70 % 1014,8 hPa 0,0 l/m 0 min 0 min 51 W/m 9,7 km/h (2 Bft) 94,29 %
24.07.2019 08:18 24,1 C 26,1 C 23,3 C 70 % 1014,8 hPa 0,0 l/m 0 min 0 min 51 W/m 9,7 km/h (2 Bft) 96,23 %
24.07.2019 08:20 24,1 C 27,8 C 23,9 C 70 % 1014,8 hPa 0,0 l/m 0 min 0 min 52 W/m 6,4 km/h (2 Bft) 95,74 %
24.07.2019 08:22 24,2 C 28,3 C 23,9 C 69 % 1014,7 hPa 0,0 l/m 0 min 0 min 53 W/m 9,7 km/h (2 Bft) 98,00 %
24.07.2019 08:24 24,4 C 28,9 C 23,9 C 68 % 1014,8 hPa 0,0 l/m 0 min 0 min 53 W/m 16,1 km/h (3 Bft) 97,96 %
24.07.2019 08:26 24,5 C 29,4 C 24,4 C 68 % 1014,8 hPa 0,0 l/m 0 min 0 min 53 W/m 6,4 km/h (2 Bft) 95,74 %
24.07.2019 08:28 24,7 C 29,4 C 24,4 C 68 % 1014,7 hPa 0,0 l/m 0 min 0 min 50 W/m 9,7 km/h (2 Bft) 97,14 %
24.07.2019 08:30 24,8 C 30,0 C 24,4 C 67 % 1014,7 hPa 0,0 l/m 0 min 0 min 55 W/m 9,7 km/h (2 Bft) 98,11 %
24.07.2019 08:32 25,1 C 30,0 C 24,4 C 67 % 1014,7 hPa 0,0 l/m 0 min 0 min 54 W/m 16,1 km/h (3 Bft) 97,87 %
24.07.2019 08:34 25,2 C 30,0 C 24,4 C 67 % 1014,8 hPa 0,0 l/m 0 min 0 min 54 W/m 9,7 km/h (2 Bft) 96,00 %
24.07.2019 08:36 25,4 C 30,6 C 25,0 C 66 % 1014,7 hPa 0,0 l/m 0 min 0 min 56 W/m 9,7 km/h (2 Bft) 97,96 %
24.07.2019 08:38 25,7 C 30,0 C 25,0 C 65 % 1014,8 hPa 0,0 l/m 0 min 0 min 57 W/m 16,1 km/h (3 Bft) 97,14 %
24.07.2019 08:40 25,9 C 30,6 C 25,0 C 65 % 1014,8 hPa 0,0 l/m 0 min 0 min 58 W/m 9,7 km/h (2 Bft) 98,11 %
24.07.2019 08:42 26,1 C 30,6 C 25,6 C 65 % 1014,8 hPa 0,0 l/m 0 min 0 min 61 W/m 9,7 km/h (2 Bft) 96,00 %
24.07.2019 08:44 26,3 C 30,6 C 25,6 C 64 % 1014,7 hPa 0,0 l/m 0 min 0 min 66 W/m 9,7 km/h (2 Bft) 98,00 %
24.07.2019 08:46 26,4 C 31,1 C 26,1 C 64 % 1014,8 hPa 0,0 l/m 0 min 0 min 72 W/m 9,7 km/h (2 Bft) 100,00 %
24.07.2019 08:48 26,6 C 30,6 C 27,8 C 63 % 1014,7 hPa 0,0 l/m 0 min 0 min 76 W/m 16,1 km/h (3 Bft) 96,23 %
24.07.2019 08:50 26,8 C 30,0 C 28,9 C 63 % 1014,8 hPa 0,0 l/m 0 min 0 min 93 W/m 9,7 km/h (2 Bft) 97,96 %
24.07.2019 08:52 26,9 C 30,6 C 30,6 C 62 % 1014,8 hPa 0,0 l/m 0 min 0 min 132 W/m 9,7 km/h (2 Bft) 98,00 %
24.07.2019 08:54 27,1 C 31,1 C 31,7 C 62 % 1014,7 hPa 0,0 l/m 0 min 0 min 165 W/m 9,7 km/h (2 Bft) 95,74 %
24.07.2019 08:56 27,2 C 31,7 C 32,2 C 62 % 1014,7 hPa 0,0 l/m 0 min 0 min 202 W/m 12,9 km/h (3 Bft) 97,14 %
24.07.2019 08:58 27,4 C 32,2 C 33,3 C 62 % 1014,7 hPa 0,0 l/m 2 min 0 min 241 W/m 9,7 km/h (2 Bft) 98,11 %
24.07.2019 09:00 27,5 C 32,2 C 33,9 C 61 % 1014,7 hPa 0,0 l/m 2 min 0 min 277 W/m 9,7 km/h (2 Bft) 95,65 %
24.07.2019 09:02 27,7 C 31,7 C 33,3 C 61 % 1014,7 hPa 0,0 l/m 2 min 0 min 316 W/m 9,7 km/h (2 Bft) 96,00 %
24.07.2019 09:04 27,8 C 32,2 C 33,3 C 60 % 1014,7 hPa 0,0 l/m 2 min 0 min 350 W/m 9,7 km/h (2 Bft) 96,00 %
24.07.2019 09:06 27,9 C 32,2 C 33,3 C 59 % 1014,7 hPa 0,0 l/m 2 min 0 min 382 W/m 12,9 km/h (3 Bft) 95,74 %
24.07.2019 09:08 28,1 C 32,2 C 34,4 C 59 % 1014,7 hPa 0,0 l/m 2 min 0 min 410 W/m 9,7 km/h (2 Bft) 97,87 %
24.07.2019 09:10 28,3 C 32,2 C 34,4 C 59 % 1014,7 hPa 0,0 l/m 2 min 0 min 432 W/m 16,1 km/h (3 Bft) 100,00 %
24.07.2019 09:12 28,4 C 32,8 C 33,9 C 58 % 1014,7 hPa 0,0 l/m 2 min 0 min 447 W/m 12,9 km/h (3 Bft) 97,83 %
24.07.2019 09:14 28,6 C 32,8 C 34,4 C 59 % 1014,7 hPa 0,0 l/m 2 min 0 min 459 W/m 9,7 km/h (2 Bft) 100,00 %
24.07.2019 09:16 28,7 C 32,2 C 33,9 C 58 % 1014,7 hPa 0,0 l/m 2 min 0 min 466 W/m 22,5 km/h (4 Bft) 100,00 %
24.07.2019 09:18 28,8 C 32,2 C 34,4 C 57 % 1014,7 hPa 0,0 l/m 2 min 0 min 472 W/m 12,9 km/h (3 Bft) 100,00 %
24.07.2019 09:20 28,9 C 32,8 C 34,4 C 57 % 1014,7 hPa 0,0 l/m 2 min 0 min 478 W/m 12,9 km/h (3 Bft) 100,00 %
24.07.2019 09:22 29,1 C 32,8 C 33,9 C 57 % 1014,8 hPa 0,0 l/m 2 min 0 min 485 W/m 9,7 km/h (2 Bft) 100,00 %
24.07.2019 09:24 29,2 C 33,3 C 35,0 C 57 % 1014,8 hPa 0,0 l/m 2 min 0 min 491 W/m 9,7 km/h (2 Bft) 100,00 %
24.07.2019 09:26 29,3 C 32,8 C 34,4 C 56 % 1014,7 hPa 0,0 l/m 2 min 0 min 495 W/m 16,1 km/h (3 Bft) 100,00 %
24.07.2019 09:28 29,5 C 32,8 C 33,9 C 56 % 1014,7 hPa 0,0 l/m 2 min 0 min 501 W/m 19,3 km/h (3 Bft) 98,00 %
24.07.2019 09:30 29,6 C 33,3 C 35,0 C 56 % 1014,7 hPa 0,0 l/m 2 min 0 min 507 W/m 9,7 km/h (2 Bft) 100,00 %
24.07.2019 09:32 29,7 C 33,3 C 35,0 C 56 % 1014,7 hPa 0,0 l/m 2 min 0 min 513 W/m 9,7 km/h (2 Bft) 97,14 %
24.07.2019 09:34 29,8 C 33,9 C 35,6 C 55 % 1014,8 hPa 0,0 l/m 2 min 0 min 520 W/m 9,7 km/h (2 Bft) 100,00 %
24.07.2019 09:36 29,9 C 33,9 C 35,0 C 55 % 1014,7 hPa 0,0 l/m 2 min 0 min 524 W/m 16,1 km/h (3 Bft) 100,00 %
24.07.2019 09:38 30,0 C 33,9 C 34,4 C 55 % 1014,7 hPa 0,0 l/m 2 min 0 min 530 W/m 12,9 km/h (3 Bft) 100,00 %
24.07.2019 09:40 30,1 C 33,9 C 34,4 C 54 % 1014,6 hPa 0,0 l/m 2 min 0 min 535 W/m 19,3 km/h (3 Bft) 100,00 %
24.07.2019 09:42 30,2 C 33,3 C 34,4 C 54 % 1014,7 hPa 0,0 l/m 2 min 0 min 542 W/m 19,3 km/h (3 Bft) 100,00 %
24.07.2019 09:44 30,3 C 33,3 C 34,4 C 53 % 1014,6 hPa 0,0 l/m 2 min 0 min 550 W/m 16,1 km/h (3 Bft) 100,00 %
24.07.2019 09:46 30,3 C 33,9 C 35,0 C 53 % 1014,5 hPa 0,0 l/m 2 min 0 min 556 W/m 12,9 km/h (3 Bft) 97,96 %
24.07.2019 09:48 30,4 C 33,3 C 35,6 C 53 % 1014,6 hPa 0,0 l/m 2 min 0 min 565 W/m 19,3 km/h (3 Bft) 100,00 %
24.07.2019 09:50 30,5 C 33,9 C 36,1 C 53 % 1014,5 hPa 0,0 l/m 2 min 0 min 571 W/m 16,1 km/h (3 Bft) 96,23 %
24.07.2019 09:52 30,6 C 34,4 C 36,1 C 53 % 1014,5 hPa 0,0 l/m 2 min 0 min 581 W/m 19,3 km/h (3 Bft) 98,00 %
24.07.2019 09:54 30,7 C 33,9 C 35,6 C 52 % 1014,5 hPa 0,0 l/m 2 min 0 min 587 W/m 16,1 km/h (3 Bft) 97,87 %
24.07.2019 09:56 30,8 C 33,3 C 34,4 C 52 % 1014,5 hPa 0,0 l/m 2 min 0 min 520 W/m 19,3 km/h (3 Bft) 97,96 %
24.07.2019 09:58 30,8 C 33,9 C 36,1 C 52 % 1014,5 hPa 0,0 l/m 2 min 0 min 590 W/m 16,1 km/h (3 Bft) 94,29 %
24.07.2019 10:00 30,9 C 34,4 C 36,1 C 52 % 1014,5 hPa 0,0 l/m 2 min 0 min 606 W/m 16,1 km/h (3 Bft) 97,87 %
24.07.2019 10:02 31,0 C 35,0 C 36,1 C 52 % 1014,6 hPa 0,0 l/m 2 min 0 min 596 W/m 12,9 km/h (3 Bft) 98,11 %
24.07.2019 10:04 31,1 C 34,4 C 36,1 C 51 % 1014,6 hPa 0,0 l/m 2 min 0 min 568 W/m 12,9 km/h (3 Bft) 97,87 %
24.07.2019 10:06 31,2 C 34,4 C 36,1 C 51 % 1014,5 hPa 0,0 l/m 2 min 0 min 553 W/m 16,1 km/h (3 Bft) 97,87 %
24.07.2019 10:08 31,2 C 35,0 C 37,2 C 52 % 1014,5 hPa 0,0 l/m 2 min 0 min 622 W/m 16,1 km/h (3 Bft) 98,00 %
24.07.2019 10:10 31,3 C 34,4 C 37,2 C 51 % 1014,5 hPa 0,0 l/m 2 min 0 min 548 W/m 16,1 km/h (3 Bft) 97,30 %
24.07.2019 10:12 31,4 C 34,4 C 36,7 C 51 % 1014,5 hPa 0,0 l/m 2 min 0 min 554 W/m 16,1 km/h (3 Bft) 96,55 %
24.07.2019 10:14 31,4 C 35,6 C 37,2 C 50 % 1014,5 hPa 0,0 l/m 2 min 0 min 627 W/m 16,1 km/h (3 Bft) 94,44 %
24.07.2019 10:16 31,5 C 35,6 C 37,8 C 50 % 1014,5 hPa 0,0 l/m 2 min 0 min 633 W/m 16,1 km/h (3 Bft) 95,74 %
24.07.2019 10:18 31,6 C 36,1 C 38,9 C 50 % 1014,5 hPa 0,0 l/m 2 min 0 min 667 W/m 12,9 km/h (3 Bft) 96,55 %
24.07.2019 10:20 31,7 C 36,1 C 39,4 C 51 % 1014,4 hPa 0,0 l/m 2 min 0 min 653 W/m 9,7 km/h (2 Bft) 94,44 %
24.07.2019 10:22 31,7 C 36,7 C 39,4 C 50 % 1014,4 hPa 0,0 l/m 2 min 0 min 678 W/m 9,7 km/h (2 Bft) 96,15 %
24.07.2019 10:24 31,8 C 35,0 C 37,8 C 49 % 1014,5 hPa 0,0 l/m 2 min 0 min 668 W/m 12,9 km/h (3 Bft) 96,00 %
24.07.2019 10:26 31,9 C 35,6 C 37,2 C 50 % 1014,5 hPa 0,0 l/m 2 min 0 min 640 W/m 12,9 km/h (3 Bft) 94,00 %
24.07.2019 10:28 32,0 C 36,7 C 38,3 C 50 % 1014,5 hPa 0,0 l/m 2 min 0 min 650 W/m 12,9 km/h (3 Bft) 97,14 %
24.07.2019 10:30 32,1 C 36,7 C 38,9 C 49 % 1014,6 hPa 0,0 l/m 2 min 0 min 680 W/m 12,9 km/h (3 Bft) 94,34 %
24.07.2019 10:32 32,2 C 37,2 C 39,4 C 50 % 1014,6 hPa 0,0 l/m 2 min 0 min 681 W/m 6,4 km/h (2 Bft) 92,00 %
24.07.2019 10:34 32,3 C 36,7 C 39,4 C 49 % 1014,6 hPa 0,0 l/m 2 min 0 min 684 W/m 16,1 km/h (3 Bft) 95,65 %
24.07.2019 10:36 32,4 C 35,6 C 38,9 C 48 % 1014,6 hPa 0,0 l/m 2 min 0 min 686 W/m 19,3 km/h (3 Bft) 92,00 %
24.07.2019 10:38 32,6 C 37,2 C 39,4 C 48 % 1014,6 hPa 0,0 l/m 2 min 0 min 690 W/m 12,9 km/h (3 Bft) 97,14 %
24.07.2019 10:40 32,7 C 36,7 C 39,4 C 47 % 1014,6 hPa 0,0 l/m 2 min 0 min 697 W/m 9,7 km/h (2 Bft) 94,34 %
24.07.2019 10:42 32,7 C 37,2 C 39,4 C 48 % 1014,6 hPa 0,0 l/m 2 min 0 min 700 W/m 12,9 km/h (3 Bft) 96,00 %
24.07.2019 10:44 32,8 C 37,2 C 40,0 C 48 % 1014,7 hPa 0,0 l/m 2 min 0 min 704 W/m 12,9 km/h (3 Bft) 95,92 %
24.07.2019 10:46 32,9 C 37,8 C 40,6 C 48 % 1014,7 hPa 0,0 l/m 2 min 0 min 710 W/m 12,9 km/h (3 Bft) 97,87 %
24.07.2019 10:48 33,0 C 37,8 C 39,4 C 47 % 1014,6 hPa 0,0 l/m 2 min 0 min 716 W/m 16,1 km/h (3 Bft) 97,14 %
24.07.2019 10:50 33,1 C 37,8 C 39,4 C 47 % 1014,6 hPa 0,0 l/m 2 min 0 min 720 W/m 9,7 km/h (2 Bft) 94,34 %
24.07.2019 10:52 33,2 C 38,3 C 40,0 C 47 % 1014,7 hPa 0,0 l/m 2 min 0 min 727 W/m 12,9 km/h (3 Bft) 96,00 %
24.07.2019 10:54 33,3 C 38,3 C 40,0 C 47 % 1014,6 hPa 0,0 l/m 2 min 0 min 727 W/m 9,7 km/h (2 Bft) 97,96 %
24.07.2019 10:56 33,4 C 37,2 C 40,0 C 46 % 1014,6 hPa 0,0 l/m 2 min 0 min 733 W/m 9,7 km/h (2 Bft) 97,14 %
24.07.2019 10:58 33,5 C 37,2 C 40,0 C 46 % 1014,6 hPa 0,0 l/m 2 min 0 min 735 W/m 9,7 km/h (2 Bft) 94,34 %
24.07.2019 11:00 33,6 C 37,2 C 39,4 C 46 % 1014,6 hPa 0,0 l/m 2 min 0 min 742 W/m 16,1 km/h (3 Bft) 96,00 %
24.07.2019 11:02 33,7 C 37,8 C 40,0 C 45 % 1014,6 hPa 0,0 l/m 2 min 0 min 749 W/m 9,7 km/h (2 Bft) 97,87 %
24.07.2019 11:04 33,7 C 37,8 C 40,0 C 45 % 1014,6 hPa 0,0 l/m 2 min 0 min 753 W/m 12,9 km/h (3 Bft) 97,87 %
24.07.2019 11:06 33,8 C 38,3 C 40,6 C 46 % 1014,6 hPa 0,0 l/m 2 min 0 min 756 W/m 16,1 km/h (3 Bft) 95,74 %
24.07.2019 11:08 33,9 C 37,8 C 40,0 C 45 % 1014,6 hPa 0,0 l/m 2 min 0 min 758 W/m 16,1 km/h (3 Bft) 95,92 %
24.07.2019 11:10 33,9 C 37,8 C 39,4 C 44 % 1014,6 hPa 0,0 l/m 2 min 0 min 762 W/m 19,3 km/h (3 Bft) 97,14 %
24.07.2019 11:12 34,0 C 37,8 C 39,4 C 44 % 1014,5 hPa 0,0 l/m 2 min 0 min 766 W/m 16,1 km/h (3 Bft) 98,11 %
24.07.2019 11:14 34,0 C 37,8 C 40,0 C 44 % 1014,4 hPa 0,0 l/m 2 min 0 min 769 W/m 19,3 km/h (3 Bft) 98,00 %
24.07.2019 11:16 34,1 C 37,8 C 41,1 C 44 % 1014,4 hPa 0,0 l/m 2 min 0 min 773 W/m 16,1 km/h (3 Bft) 97,87 %
24.07.2019 11:18 34,1 C 37,8 C 40,6 C 44 % 1014,4 hPa 0,0 l/m 2 min 0 min 777 W/m 12,9 km/h (3 Bft) 97,96 %
24.07.2019 11:20 34,1 C 37,8 C 40,0 C 44 % 1014,4 hPa 0,0 l/m 2 min 0 min 780 W/m 16,1 km/h (3 Bft) 97,87 %
24.07.2019 11:22 34,2 C 37,8 C 40,6 C 44 % 1014,3 hPa 0,0 l/m 2 min 0 min 783 W/m 19,3 km/h (3 Bft) 97,87 %
24.07.2019 11:24 34,2 C 37,8 C 40,0 C 43 % 1014,3 hPa 0,0 l/m 2 min 0 min 787 W/m 22,5 km/h (4 Bft) 97,14 %
24.07.2019 11:26 34,2 C 38,3 C 41,1 C 44 % 1014,3 hPa 0,0 l/m 2 min 0 min 791 W/m 12,9 km/h (3 Bft) 95,74 %
24.07.2019 11:28 34,3 C 38,9 C 41,1 C 44 % 1014,3 hPa 0,0 l/m 2 min 0 min 796 W/m 16,1 km/h (3 Bft) 98,11 %
24.07.2019 11:30 34,3 C 38,9 C 41,1 C 44 % 1014,3 hPa 0,0 l/m 2 min 0 min 801 W/m 16,1 km/h (3 Bft) 96,00 %
24.07.2019 11:32 34,4 C 38,9 C 40,6 C 44 % 1014,3 hPa 0,0 l/m 2 min 0 min 805 W/m 12,9 km/h (3 Bft) 97,83 %
24.07.2019 11:34 34,5 C 38,9 C 41,1 C 44 % 1014,4 hPa 0,0 l/m 2 min 0 min 808 W/m 12,9 km/h (3 Bft) 98,00 %
24.07.2019 11:36 34,6 C 38,3 C 40,0 C 44 % 1014,4 hPa 0,0 l/m 2 min 0 min 810 W/m 19,3 km/h (3 Bft) 100,00 %
24.07.2019 11:38 34,6 C 38,9 C 40,6 C 43 % 1014,4 hPa 0,0 l/m 2 min 0 min 816 W/m 12,9 km/h (3 Bft) 100,00 %
24.07.2019 11:40 34,6 C 38,9 C 40,6 C 43 % 1014,4 hPa 0,0 l/m 2 min 0 min 820 W/m 12,9 km/h (3 Bft) 100,00 %
24.07.2019 11:42 34,7 C 38,9 C 41,1 C 43 % 1014,4 hPa 0,0 l/m 2 min 0 min 825 W/m 16,1 km/h (3 Bft) 100,00 %
24.07.2019 11:44 34,7 C 38,9 C 41,1 C 43 % 1014,4 hPa 0,0 l/m 2 min 0 min 830 W/m 16,1 km/h (3 Bft) 100,00 %
24.07.2019 11:46 34,8 C 38,9 C 41,1 C 42 % 1014,4 hPa 0,0 l/m 2 min 0 min 833 W/m 22,5 km/h (4 Bft) 100,00 %
24.07.2019 11:48 34,8 C 38,9 C 40,6 C 42 % 1014,4 hPa 0,0 l/m 2 min 0 min 836 W/m 9,7 km/h (2 Bft) 100,00 %
24.07.2019 11:50 34,8 C 38,9 C 41,1 C 42 % 1014,5 hPa 0,0 l/m 2 min 0 min 840 W/m 12,9 km/h (3 Bft) 100,00 %
24.07.2019 11:52 34,9 C 40,0 C 41,1 C 44 % 1014,4 hPa 0,0 l/m 2 min 0 min 842 W/m 9,7 km/h (2 Bft) 100,00 %
24.07.2019 11:54 35,0 C 40,0 C 39,4 C 44 % 1014,4 hPa 0,0 l/m 2 min 0 min 847 W/m 9,7 km/h (2 Bft) 100,00 %
24.07.2019 11:56 35,1 C 40,0 C 38,3 C 43 % 1014,4 hPa 0,0 l/m 2 min 0 min 850 W/m 9,7 km/h (2 Bft) 100,00 %
24.07.2019 11:58 35,2 C 40,6 C 39,4 C 43 % 1014,3 hPa 0,0 l/m 2 min 0 min 853 W/m 9,7 km/h (2 Bft) 100,00 %
24.07.2019 12:00 35,3 C 40,0 C 40,0 C 42 % 1014,3 hPa 0,0 l/m 2 min 0 min 857 W/m 25,7 km/h (4 Bft) 100,00 %
24.07.2019 12:02 35,3 C 39,4 C 40,0 C 42 % 1014,3 hPa 0,0 l/m 2 min 0 min 860 W/m 19,3 km/h (3 Bft) 100,00 %
24.07.2019 12:04 35,4 C 38,3 C 40,6 C 42 % 1014,2 hPa 0,0 l/m 2 min 0 min 862 W/m 19,3 km/h (3 Bft) 98,00 %
24.07.2019 12:08 35,5 C 40,0 C 42,2 C 41 % 1014,3 hPa 0,0 l/m 4 min 0 min 866 W/m 12,9 km/h (3 Bft) 96,88 %
24.07.2019 12:10 35,6 C 41,1 C 42,8 C 42 % 1014,2 hPa 0,0 l/m 2 min 0 min 867 W/m 9,7 km/h (2 Bft) 100,00 %
24.07.2019 12:12 35,7 C 40,6 C 42,2 C 41 % 1014,2 hPa 0,0 l/m 2 min 0 min 869 W/m 16,1 km/h (3 Bft) 97,87 %
24.07.2019 12:14 35,7 C 40,0 C 41,7 C 40 % 1014,1 hPa 0,0 l/m 2 min 0 min 873 W/m 16,1 km/h (3 Bft) 100,00 %
24.07.2019 12:16 35,8 C 39,4 C 41,7 C 40 % 1014,1 hPa 0,0 l/m 2 min 0 min 875 W/m 16,1 km/h (3 Bft) 100,00 %
24.07.2019 12:18 35,8 C 40,0 C 42,8 C 41 % 1014,1 hPa 0,0 l/m 2 min 0 min 876 W/m 22,5 km/h (4 Bft) 100,00 %
24.07.2019 12:20 35,8 C 40,0 C 42,2 C 40 % 1014,1 hPa 0,0 l/m 2 min 0 min 877 W/m 16,1 km/h (3 Bft) 100,00 %
24.07.2019 12:22 35,9 C 40,6 C 42,2 C 39 % 1014,1 hPa 0,0 l/m 2 min 0 min 879 W/m 12,9 km/h (3 Bft) 100,00 %
24.07.2019 12:24 35,9 C 40,0 C 42,2 C 40 % 1014,0 hPa 0,0 l/m 2 min 0 min 885 W/m 16,1 km/h (3 Bft) 100,00 %
24.07.2019 12:26 35,9 C 40,0 C 42,8 C 40 % 1013,9 hPa 0,0 l/m 2 min 0 min 905 W/m 16,1 km/h (3 Bft) 98,00 %
24.07.2019 12:28 36,0 C 40,0 C 42,8 C 41 % 1014,0 hPa 0,0 l/m 2 min 0 min 890 W/m 16,1 km/h (3 Bft) 100,00 %
24.07.2019 12:30 36,0 C 40,0 C 41,7 C 40 % 1014,0 hPa 0,0 l/m 2 min 0 min 885 W/m 16,1 km/h (3 Bft) 100,00 %
24.07.2019 12:32 36,1 C 40,6 C 42,2 C 40 % 1013,9 hPa 0,0 l/m 2 min 0 min 885 W/m 9,7 km/h (2 Bft) 100,00 %
24.07.2019 12:34 36,1 C 40,0 C 42,2 C 39 % 1013,9 hPa 0,0 l/m 2 min 0 min 888 W/m 9,7 km/h (2 Bft) 100,00 %
24.07.2019 12:36 36,1 C 40,0 C 41,7 C 42 % 1014,0 hPa 0,0 l/m 2 min 0 min 889 W/m 16,1 km/h (3 Bft) 100,00 %
24.07.2019 12:38 36,2 C 40,6 C 40,6 C 41 % 1013,9 hPa 0,0 l/m 2 min 0 min 894 W/m 9,7 km/h (2 Bft) 100,00 %
24.07.2019 12:40 36,2 C 40,6 C 39,4 C 40 % 1014,0 hPa 0,0 l/m 2 min 0 min 896 W/m 22,5 km/h (4 Bft) 100,00 %
24.07.2019 12:42 36,3 C 41,1 C 38,3 C 39 % 1013,9 hPa 0,0 l/m 2 min 0 min 897 W/m 12,9 km/h (3 Bft) 97,14 %
24.07.2019 12:44 36,3 C 41,7 C 38,3 C 39 % 1013,9 hPa 0,0 l/m 2 min 0 min 899 W/m 12,9 km/h (3 Bft) 100,00 %
24.07.2019 12:46 36,3 C 41,1 C 38,9 C 38 % 1013,9 hPa 0,0 l/m 2 min 0 min 901 W/m 16,1 km/h (3 Bft) 97,87 %
24.07.2019 12:48 36,4 C 41,1 C 38,9 C 36 % 1013,9 hPa 0,0 l/m 2 min 0 min 902 W/m 16,1 km/h (3 Bft) 98,00 %
24.07.2019 12:50 36,4 C 41,7 C 40,0 C 38 % 1013,8 hPa 0,0 l/m 2 min 0 min 903 W/m 22,5 km/h (4 Bft) 97,87 %
24.07.2019 12:52 36,5 C 40,0 C 37,8 C 39 % 1013,8 hPa 0,0 l/m 2 min 0 min 908 W/m 19,3 km/h (3 Bft) 100,00 %
24.07.2019 12:54 36,5 C 40,6 C 38,9 C 38 % 1013,9 hPa 0,0 l/m 2 min 0 min 906 W/m 12,9 km/h (3 Bft) 100,00 %
24.07.2019 12:56 36,5 C 40,6 C 39,4 C 38 % 1013,8 hPa 0,0 l/m 2 min 0 min 906 W/m 19,3 km/h (3 Bft) 100,00 %
24.07.2019 12:58 36,6 C 41,1 C 39,4 C 37 % 1013,9 hPa 0,0 l/m 2 min 0 min 909 W/m 16,1 km/h (3 Bft) 96,23 %
24.07.2019 13:00 36,6 C 41,1 C 39,4 C 38 % 1013,9 hPa 0,0 l/m 2 min 0 min 911 W/m 16,1 km/h (3 Bft) 96,00 %
24.07.2019 13:02 36,6 C 41,7 C 40,0 C 38 % 1013,8 hPa 0,0 l/m 2 min 0 min 912 W/m 9,7 km/h (2 Bft) 93,88 %
24.07.2019 13:04 36,7 C 42,2 C 40,6 C 37 % 1013,9 hPa 0,0 l/m 2 min 0 min 915 W/m 6,4 km/h (2 Bft) 94,29 %
24.07.2019 13:06 36,8 C 42,8 C 42,8 C 38 % 1013,8 hPa 0,0 l/m 2 min 0 min 914 W/m 12,9 km/h (3 Bft) 94,34 %
24.07.2019 13:08 36,8 C 41,7 C 42,8 C 37 % 1013,8 hPa 0,0 l/m 2 min 0 min 913 W/m 16,1 km/h (3 Bft) 96,00 %
24.07.2019 13:10 36,9 C 40,6 C 41,7 C 37 % 1013,8 hPa 0,0 l/m 2 min 0 min 917 W/m 16,1 km/h (3 Bft) 94,00 %
24.07.2019 13:12 36,9 C 40,6 C 42,8 C 36 % 1013,7 hPa 0,0 l/m 2 min 0 min 917 W/m 16,1 km/h (3 Bft) 97,14 %
24.07.2019 13:14 36,9 C 41,7 C 42,8 C 37 % 1013,8 hPa 0,0 l/m 2 min 0 min 917 W/m 16,1 km/h (3 Bft) 93,62 %
24.07.2019 13:16 36,9 C 41,1 C 42,2 C 35 % 1013,7 hPa 0,0 l/m 2 min 0 min 915 W/m 25,7 km/h (4 Bft) 95,74 %
24.07.2019 13:18 36,9 C 40,6 C 42,2 C 36 % 1013,7 hPa 0,0 l/m 2 min 0 min 917 W/m 12,9 km/h (3 Bft) 94,44 %
24.07.2019 13:20 37,0 C 41,1 C 42,2 C 36 % 1013,7 hPa 0,0 l/m 2 min 0 min 916 W/m 19,3 km/h (3 Bft) 94,00 %
24.07.2019 13:22 36,9 C 40,6 C 42,2 C 36 % 1013,7 hPa 0,0 l/m 2 min 0 min 920 W/m 22,5 km/h (4 Bft) 95,74 %
24.07.2019 13:24 36,9 C 41,7 C 43,9 C 36 % 1013,6 hPa 0,0 l/m 2 min 0 min 918 W/m 9,7 km/h (2 Bft) 95,74 %
24.07.2019 13:26 37,0 C 41,7 C 43,9 C 36 % 1013,7 hPa 0,0 l/m 2 min 0 min 918 W/m 16,1 km/h (3 Bft) 95,74 %
24.07.2019 13:28 37,0 C 41,7 C 43,3 C 35 % 1013,7 hPa 0,0 l/m 2 min 0 min 918 W/m 16,1 km/h (3 Bft) 91,43 %
24.07.2019 13:30 37,1 C 41,1 C 42,8 C 35 % 1013,7 hPa 0,0 l/m 2 min 0 min 918 W/m 19,3 km/h (3 Bft) 96,61 %
24.07.2019 13:32 37,1 C 40,6 C 42,8 C 35 % 1013,7 hPa 0,0 l/m 2 min 0 min 918 W/m 22,5 km/h (4 Bft) 94,29 %
24.07.2019 13:34 37,1 C 40,6 C 42,8 C 35 % 1013,8 hPa 0,0 l/m 2 min 0 min 919 W/m 12,9 km/h (3 Bft) 91,49 %
24.07.2019 13:36 37,1 C 42,2 C 44,4 C 37 % 1013,7 hPa 0,0 l/m 2 min 0 min 917 W/m 6,4 km/h (2 Bft) 93,62 %
24.07.2019 13:38 37,1 C 41,1 C 43,3 C 35 % 1013,7 hPa 0,0 l/m 2 min 0 min 913 W/m 12,9 km/h (3 Bft) 96,23 %
24.07.2019 13:40 37,1 C 40,6 C 43,3 C 36 % 1013,7 hPa 0,0 l/m 2 min 0 min 912 W/m 12,9 km/h (3 Bft) 93,88 %
24.07.2019 13:42 37,1 C 41,7 C 44,4 C 36 % 1013,6 hPa 0,0 l/m 2 min 0 min 911 W/m 9,7 km/h (2 Bft) 96,00 %
24.07.2019 13:44 37,1 C 41,7 C 44,4 C 36 % 1013,6 hPa 0,0 l/m 2 min 0 min 912 W/m 9,7 km/h (2 Bft) 93,62 %
24.07.2019 13:46 37,2 C 41,7 C 43,9 C 36 % 1013,6 hPa 0,0 l/m 2 min 0 min 914 W/m 16,1 km/h (3 Bft) 97,14 %
24.07.2019 13:48 37,2 C 41,7 C 43,9 C 36 % 1013,6 hPa 0,0 l/m 2 min 0 min 914 W/m 9,7 km/h (2 Bft) 95,74 %
24.07.2019 13:50 37,3 C 41,7 C 45,0 C 36 % 1013,6 hPa 0,0 l/m 2 min 0 min 915 W/m 16,1 km/h (3 Bft) 98,11 %
24.07.2019 13:52 37,3 C 41,1 C 45,0 C 35 % 1013,7 hPa 0,0 l/m 2 min 0 min 912 W/m 16,1 km/h (3 Bft) 97,96 %
24.07.2019 13:54 37,4 C 40,6 C 43,9 C 35 % 1013,7 hPa 0,0 l/m 2 min 0 min 912 W/m 12,9 km/h (3 Bft) 98,00 %
24.07.2019 13:56 37,4 C 41,1 C 43,9 C 35 % 1013,7 hPa 0,0 l/m 2 min 0 min 912 W/m 9,7 km/h (2 Bft) 95,74 %
24.07.2019 13:58 37,5 C 41,7 C 45,0 C 35 % 1013,6 hPa 0,0 l/m 2 min 0 min 915 W/m 9,7 km/h (2 Bft) 97,14 %
24.07.2019 14:00 37,5 C 42,8 C 45,0 C 35 % 1013,6 hPa 0,0 l/m 2 min 0 min 911 W/m 9,7 km/h (2 Bft) 98,11 %
24.07.2019 14:02 37,6 C 41,7 C 43,9 C 35 % 1013,6 hPa 0,0 l/m 2 min 0 min 907 W/m 12,9 km/h (3 Bft) 97,96 %
24.07.2019 14:04 37,6 C 41,1 C 43,9 C 35 % 1013,6 hPa 0,0 l/m 2 min 0 min 908 W/m 22,5 km/h (4 Bft) 96,00 %
24.07.2019 14:06 37,6 C 42,2 C 44,4 C 36 % 1013,5 hPa 0,0 l/m 2 min 0 min 906 W/m 9,7 km/h (2 Bft) 94,29 %
24.07.2019 14:08 37,7 C 42,8 C 43,9 C 35 % 1013,5 hPa 0,0 l/m 2 min 0 min 904 W/m 6,4 km/h (2 Bft) 96,23 %
24.07.2019 14:10 37,8 C 43,3 C 45,0 C 36 % 1013,4 hPa 0,0 l/m 2 min 0 min 902 W/m 16,1 km/h (3 Bft) 97,87 %
24.07.2019 14:12 37,8 C 41,7 C 43,9 C 35 % 1013,5 hPa 0,0 l/m 2 min 0 min 901 W/m 19,3 km/h (3 Bft) 98,00 %
24.07.2019 14:14 37,8 C 41,1 C 43,3 C 34 % 1013,5 hPa 0,0 l/m 2 min 0 min 900 W/m 25,7 km/h (4 Bft) 97,83 %
24.07.2019 14:16 37,8 C 41,1 C 43,3 C 35 % 1013,5 hPa 0,0 l/m 2 min 0 min 900 W/m 16,1 km/h (3 Bft) 95,74 %
24.07.2019 14:18 37,8 C 40,6 C 42,8 C 34 % 1013,4 hPa 0,0 l/m 2 min 0 min 900 W/m 19,3 km/h (3 Bft) 98,00 %
24.07.2019 14:20 37,8 C 41,7 C 42,8 C 35 % 1013,5 hPa 0,0 l/m 2 min 0 min 897 W/m 16,1 km/h (3 Bft) 97,14 %
24.07.2019 14:22 37,8 C 41,1 C 42,8 C 34 % 1013,5 hPa 0,0 l/m 2 min 0 min 896 W/m 19,3 km/h (3 Bft) 96,23 %
24.07.2019 14:24 37,7 C 41,1 C 43,3 C 34 % 1013,6 hPa 0,0 l/m 2 min 0 min 894 W/m 16,1 km/h (3 Bft) 98,00 %
24.07.2019 14:26 37,7 C 41,1 C 42,8 C 34 % 1013,5 hPa 0,0 l/m 2 min 0 min 892 W/m 12,9 km/h (3 Bft) 97,96 %
24.07.2019 14:28 37,7 C 41,1 C 42,8 C 34 % 1013,5 hPa 0,0 l/m 2 min 0 min 890 W/m 16,1 km/h (3 Bft) 97,14 %
24.07.2019 14:30 37,7 C 41,1 C 42,8 C 35 % 1013,5 hPa 0,0 l/m 2 min 0 min 891 W/m 22,5 km/h (4 Bft) 97,87 %
24.07.2019 14:32 37,7 C 41,7 C 43,3 C 34 % 1013,5 hPa 0,0 l/m 2 min 0 min 889 W/m 16,1 km/h (3 Bft) 98,11 %
24.07.2019 14:34 37,7 C 42,2 C 43,9 C 34 % 1013,5 hPa 0,0 l/m 2 min 0 min 890 W/m 9,7 km/h (2 Bft) 97,87 %
24.07.2019 14:36 37,7 C 43,3 C 43,9 C 35 % 1013,4 hPa 0,0 l/m 2 min 0 min 887 W/m 6,4 km/h (2 Bft) 96,00 %
24.07.2019 14:38 37,8 C 43,9 C 43,3 C 35 % 1013,3 hPa 0,0 l/m 2 min 0 min 884 W/m 6,4 km/h (2 Bft) 97,83 %
24.07.2019 14:40 37,8 C 43,3 C 41,7 C 34 % 1013,3 hPa 0,0 l/m 2 min 0 min 876 W/m 9,7 km/h (2 Bft) 98,00 %
24.07.2019 14:42 37,9 C 42,2 C 40,6 C 35 % 1013,3 hPa 0,0 l/m 2 min 0 min 876 W/m 9,7 km/h (2 Bft) 95,74 %
24.07.2019 14:44 37,9 C 42,8 C 40,0 C 35 % 1013,3 hPa 0,0 l/m 2 min 0 min 879 W/m 6,4 km/h (2 Bft) 94,29 %
24.07.2019 14:46 38,0 C 42,2 C 40,0 C 35 % 1013,3 hPa 0,0 l/m 2 min 0 min 876 W/m 12,9 km/h (3 Bft) 95,74 %
24.07.2019 14:48 38,1 C 42,2 C 40,0 C 34 % 1013,3 hPa 0,0 l/m 2 min 0 min 877 W/m 22,5 km/h (4 Bft) 98,11 %
24.07.2019 14:50 38,1 C 41,7 C 38,9 C 34 % 1013,3 hPa 0,0 l/m 2 min 0 min 878 W/m 16,1 km/h (3 Bft) 97,96 %
24.07.2019 14:52 38,1 C 43,3 C 38,9 C 35 % 1013,3 hPa 0,0 l/m 2 min 0 min 873 W/m 6,4 km/h (2 Bft) 96,00 %
24.07.2019 14:54 38,2 C 42,8 C 38,9 C 34 % 1013,3 hPa 0,0 l/m 2 min 0 min 868 W/m 16,1 km/h (3 Bft) 95,74 %
24.07.2019 14:56 38,2 C 43,3 C 38,9 C 34 % 1013,2 hPa 0,0 l/m 2 min 0 min 867 W/m 9,7 km/h (2 Bft) 100,00 %
24.07.2019 14:58 38,2 C 42,8 C 39,4 C 34 % 1013,3 hPa 0,0 l/m 2 min 0 min 864 W/m 9,7 km/h (2 Bft) 95,74 %
24.07.2019 15:00 38,3 C 42,8 C 41,1 C 33 % 1013,3 hPa 0,0 l/m 2 min 0 min 866 W/m 12,9 km/h (3 Bft) 98,11 %
24.07.2019 15:02 38,3 C 42,8 C 40,6 C 33 % 1013,3 hPa 0,0 l/m 2 min 0 min 866 W/m 16,1 km/h (3 Bft) 97,96 %
24.07.2019 15:04 38,3 C 42,8 C 39,4 C 33 % 1013,3 hPa 0,0 l/m 2 min 0 min 864 W/m 12,9 km/h (3 Bft) 100,00 %
24.07.2019 15:06 38,3 C 41,7 C 38,3 C 32 % 1013,2 hPa 0,0 l/m 2 min 0 min 862 W/m 12,9 km/h (3 Bft) 97,14 %
24.07.2019 15:08 38,3 C 41,7 C 37,8 C 32 % 1013,3 hPa 0,0 l/m 2 min 0 min 861 W/m 12,9 km/h (3 Bft) 98,11 %
24.07.2019 15:10 38,3 C 41,7 C 37,8 C 32 % 1013,2 hPa 0,0 l/m 2 min 0 min 858 W/m 6,4 km/h (2 Bft) 95,74 %
24.07.2019 15:12 38,2 C 42,8 C 37,8 C 32 % 1013,3 hPa 0,0 l/m 2 min 0 min 858 W/m 6,4 km/h (2 Bft) 97,96 %
24.07.2019 15:14 38,3 C 42,8 C 37,8 C 33 % 1013,2 hPa 0,0 l/m 2 min 0 min 854 W/m 9,7 km/h (2 Bft) 97,87 %
24.07.2019 15:16 38,3 C 42,8 C 38,3 C 33 % 1013,3 hPa 0,0 l/m 2 min 0 min 848 W/m 16,1 km/h (3 Bft) 98,00 %
24.07.2019 15:18 38,3 C 42,8 C 37,8 C 32 % 1013,3 hPa 0,0 l/m 2 min 0 min 841 W/m 9,7 km/h (2 Bft) 97,14 %
24.07.2019 15:20 38,4 C 43,3 C 37,8 C 35 % 1013,2 hPa 0,0 l/m 2 min 0 min 839 W/m 9,7 km/h (2 Bft) 96,23 %
24.07.2019 15:22 38,4 C 42,2 C 37,8 C 33 % 1013,2 hPa 0,0 l/m 2 min 0 min 838 W/m 12,9 km/h (3 Bft) 98,00 %
24.07.2019 15:24 38,4 C 43,9 C 37,8 C 34 % 1013,2 hPa 0,0 l/m 2 min 0 min 832 W/m 6,4 km/h (2 Bft) 95,92 %
24.07.2019 15:26 38,5 C 42,8 C 37,8 C 33 % 1013,1 hPa 0,0 l/m 2 min 0 min 828 W/m 22,5 km/h (4 Bft) 100,00 %
24.07.2019 15:28 38,6 C 43,3 C 37,8 C 34 % 1013,1 hPa 0,0 l/m 2 min 0 min 825 W/m 6,4 km/h (2 Bft) 96,23 %
24.07.2019 15:30 38,6 C 42,8 C 37,8 C 33 % 1013,0 hPa 0,0 l/m 2 min 0 min 822 W/m 12,9 km/h (3 Bft) 96,00 %
24.07.2019 15:32 38,7 C 43,9 C 37,8 C 36 % 1013,0 hPa 0,0 l/m 2 min 0 min 815 W/m 3,2 km/h (1 Bft) 97,96 %
24.07.2019 15:34 38,7 C 44,4 C 37,8 C 35 % 1012,9 hPa 0,0 l/m 2 min 0 min 813 W/m 3,2 km/h (1 Bft) 97,22 %
24.07.2019 15:36 38,8 C 44,4 C 37,8 C 35 % 1012,9 hPa 0,0 l/m 2 min 0 min 813 W/m 6,4 km/h (2 Bft) 98,08 %
24.07.2019 15:38 38,9 C 45,0 C 37,2 C 39 % 1012,9 hPa 0,0 l/m 2 min 0 min 808 W/m 6,4 km/h (2 Bft) 93,62 %
24.07.2019 15:40 38,9 C 43,9 C 37,2 C 37 % 1012,9 hPa 0,0 l/m 2 min 0 min 808 W/m 6,4 km/h (2 Bft) 95,74 %
24.07.2019 15:42 39,0 C 44,4 C 37,8 C 38 % 1013,0 hPa 0,0 l/m 2 min 0 min 803 W/m 6,4 km/h (2 Bft) 96,00 %
24.07.2019 15:44 39,1 C 44,4 C 37,8 C 38 % 1013,0 hPa 0,0 l/m 2 min 0 min 803 W/m 3,2 km/h (1 Bft) 97,96 %
24.07.2019 15:46 39,1 C 45,0 C 37,8 C 35 % 1012,9 hPa 0,0 l/m 2 min 0 min 803 W/m 12,9 km/h (3 Bft) 97,22 %
24.07.2019 15:48 39,2 C 44,4 C 37,8 C 34 % 1013,0 hPa 0,0 l/m 2 min 0 min 800 W/m 12,9 km/h (3 Bft) 96,15 %
24.07.2019 15:50 39,2 C 43,9 C 37,8 C 36 % 1013,0 hPa 0,0 l/m 2 min 0 min 797 W/m 6,4 km/h (2 Bft) 100,00 %
24.07.2019 15:52 39,3 C 44,4 C 37,8 C 35 % 1013,0 hPa 0,0 l/m 2 min 0 min 793 W/m 3,2 km/h (1 Bft) 100,00 %
24.07.2019 15:54 39,3 C 43,9 C 37,8 C 34 % 1013,0 hPa 0,0 l/m 2 min 0 min 788 W/m 6,4 km/h (2 Bft) 100,00 %
24.07.2019 15:56 39,4 C 43,9 C 38,3 C 34 % 1013,0 hPa 0,0 l/m 2 min 0 min 784 W/m 6,4 km/h (2 Bft) 100,00 %
24.07.2019 15:58 39,4 C 43,3 C 38,3 C 32 % 1013,0 hPa 0,0 l/m 2 min 0 min 779 W/m 9,7 km/h (2 Bft) 98,11 %
24.07.2019 16:00 39,4 C 42,8 C 38,3 C 31 % 1013,0 hPa 0,0 l/m 2 min 0 min 777 W/m 16,1 km/h (3 Bft) 100,00 %
24.07.2019 16:02 39,4 C 42,2 C 38,3 C 31 % 1013,0 hPa 0,0 l/m 2 min 0 min 775 W/m 16,1 km/h (3 Bft) 98,00 %
24.07.2019 16:04 39,3 C 41,7 C 37,8 C 30 % 1013,0 hPa 0,0 l/m 2 min 0 min 772 W/m 12,9 km/h (3 Bft) 100,00 %
24.07.2019 16:06 39,3 C 42,2 C 37,8 C 31 % 1013,1 hPa 0,0 l/m 2 min 0 min 772 W/m 9,7 km/h (2 Bft) 100,00 %
24.07.2019 16:08 39,3 C 42,2 C 37,8 C 30 % 1013,1 hPa 0,0 l/m 2 min 0 min 767 W/m 9,7 km/h (2 Bft) 95,65 %
24.07.2019 16:10 39,3 C 42,8 C 37,8 C 32 % 1013,0 hPa 0,0 l/m 2 min 0 min 762 W/m 9,7 km/h (2 Bft) 100,00 %
24.07.2019 16:12 39,3 C 43,3 C 37,8 C 31 % 1013,0 hPa 0,0 l/m 2 min 0 min 757 W/m 9,7 km/h (2 Bft) 97,87 %
24.07.2019 16:14 39,3 C 42,8 C 37,2 C 30 % 1013,0 hPa 0,0 l/m 2 min 0 min 753 W/m 12,9 km/h (3 Bft) 100,00 %
24.07.2019 16:16 39,3 C 42,8 C 37,8 C 31 % 1013,0 hPa 0,0 l/m 2 min 0 min 747 W/m 6,4 km/h (2 Bft) 100,00 %
24.07.2019 16:18 39,4 C 43,9 C 37,8 C 33 % 1013,0 hPa 0,0 l/m 2 min 0 min 740 W/m 3,2 km/h (1 Bft) 98,00 %
24.07.2019 16:20 39,4 C 43,9 C 37,8 C 33 % 1012,9 hPa 0,0 l/m 2 min 0 min 736 W/m 6,4 km/h (2 Bft) 100,00 %
24.07.2019 16:22 39,4 C 44,4 C 38,3 C 32 % 1012,9 hPa 0,0 l/m 2 min 0 min 730 W/m 3,2 km/h (1 Bft) 100,00 %
24.07.2019 16:24 39,5 C 43,3 C 38,9 C 31 % 1012,9 hPa 0,0 l/m 2 min 0 min 728 W/m 9,7 km/h (2 Bft) 100,00 %
24.07.2019 16:26 39,5 C 42,8 C 38,9 C 31 % 1012,8 hPa 0,0 l/m 2 min 0 min 723 W/m 12,9 km/h (3 Bft) 98,11 %
24.07.2019 16:28 39,5 C 43,3 C 39,4 C 30 % 1012,8 hPa 0,0 l/m 2 min 0 min 716 W/m 9,7 km/h (2 Bft) 96,00 %
24.07.2019 16:30 39,5 C 43,3 C 39,4 C 31 % 1012,8 hPa 0,0 l/m 2 min 0 min 711 W/m 16,1 km/h (3 Bft) 100,00 %
24.07.2019 16:32 39,5 C 42,8 C 38,9 C 32 % 1012,9 hPa 0,0 l/m 2 min 0 min 703 W/m 9,7 km/h (2 Bft) 100,00 %
24.07.2019 16:34 39,5 C 42,8 C 38,3 C 32 % 1012,9 hPa 0,0 l/m 2 min 0 min 698 W/m 6,4 km/h (2 Bft) 100,00 %
24.07.2019 16:36 39,6 C 43,3 C 38,3 C 31 % 1012,9 hPa 0,0 l/m 2 min 0 min 694 W/m 9,7 km/h (2 Bft) 100,00 %
24.07.2019 16:38 39,6 C 43,3 C 38,3 C 31 % 1012,8 hPa 0,0 l/m 2 min 0 min 692 W/m 6,4 km/h (2 Bft) 100,00 %
24.07.2019 16:40 39,6 C 43,3 C 37,8 C 31 % 1012,9 hPa 0,0 l/m 2 min 0 min 688 W/m 6,4 km/h (2 Bft) 100,00 %
24.07.2019 16:42 39,6 C 42,8 C 38,3 C 32 % 1012,9 hPa 0,0 l/m 2 min 0 min 685 W/m 9,7 km/h (2 Bft) 100,00 %
24.07.2019 16:44 39,6 C 42,8 C 38,3 C 30 % 1012,8 hPa 0,0 l/m 2 min 0 min 679 W/m 9,7 km/h (2 Bft) 100,00 %
24.07.2019 16:46 39,6 C 42,2 C 38,9 C 31 % 1012,8 hPa 0,0 l/m 2 min 0 min 673 W/m 9,7 km/h (2 Bft) 100,00 %
24.07.2019 16:48 39,7 C 42,8 C 38,9 C 31 % 1012,8 hPa 0,0 l/m 2 min 0 min 667 W/m 9,7 km/h (2 Bft) 100,00 %
24.07.2019 16:50 39,7 C 43,9 C 38,9 C 35 % 1012,9 hPa 0,0 l/m 2 min 0 min 662 W/m 3,2 km/h (1 Bft) 100,00 %
24.07.2019 16:52 39,8 C 43,9 C 37,8 C 33 % 1012,9 hPa 0,0 l/m 2 min 0 min 660 W/m 3,2 km/h (1 Bft) 100,00 %
24.07.2019 16:54 39,7 C 43,9 C 37,8 C 33 % 1012,9 hPa 0,0 l/m 2 min 0 min 656 W/m 6,4 km/h (2 Bft) 100,00 %
24.07.2019 16:56 39,7 C 44,4 C 37,8 C 32 % 1012,9 hPa 0,0 l/m 2 min 0 min 650 W/m 6,4 km/h (2 Bft) 95,92 %
24.07.2019 16:58 39,8 C 43,9 C 37,8 C 30 % 1013,0 hPa 0,0 l/m 2 min 0 min 644 W/m 6,4 km/h (2 Bft) 97,14 %
24.07.2019 17:00 39,8 C 43,9 C 37,2 C 34 % 1012,9 hPa 0,0 l/m 2 min 0 min 638 W/m 6,4 km/h (2 Bft) 98,11 %
24.07.2019 17:02 39,8 C 44,4 C 37,2 C 33 % 1012,9 hPa 0,0 l/m 2 min 0 min 632 W/m 3,2 km/h (1 Bft) 93,62 %
24.07.2019 17:04 39,8 C 44,4 C 37,2 C 40 % 1012,9 hPa 0,0 l/m 2 min 0 min 626 W/m 3,2 km/h (1 Bft) 96,00 %
24.07.2019 17:06 39,8 C 43,9 C 37,2 C 33 % 1012,9 hPa 0,0 l/m 2 min 0 min 619 W/m 3,2 km/h (1 Bft) 97,87 %
24.07.2019 17:08 39,8 C 42,8 C 37,2 C 32 % 1012,9 hPa 0,0 l/m 2 min 0 min 612 W/m 9,7 km/h (2 Bft) 95,92 %
24.07.2019 17:10 39,7 C 42,8 C 37,2 C 33 % 1012,8 hPa 0,0 l/m 2 min 0 min 608 W/m 9,7 km/h (2 Bft) 97,87 %
24.07.2019 17:12 39,8 C 42,8 C 37,2 C 31 % 1012,9 hPa 0,0 l/m 2 min 0 min 606 W/m 9,7 km/h (2 Bft) 94,29 %
24.07.2019 17:14 39,8 C 43,9 C 37,8 C 31 % 1012,9 hPa 0,0 l/m 2 min 0 min 602 W/m 6,4 km/h (2 Bft) 97,87 %
24.07.2019 17:16 39,8 C 43,3 C 37,2 C 32 % 1012,9 hPa 0,0 l/m 2 min 0 min 595 W/m 3,2 km/h (1 Bft) 91,49 %
24.07.2019 17:18 39,9 C 42,8 C 37,2 C 35 % 1012,8 hPa 0,0 l/m 2 min 0 min 590 W/m 3,2 km/h (1 Bft) 98,11 %
24.07.2019 17:20 39,9 C 43,3 C 36,7 C 36 % 1012,8 hPa 0,0 l/m 2 min 0 min 584 W/m 3,2 km/h (1 Bft) 97,96 %
24.07.2019 17:22 39,8 C 42,8 C 36,7 C 32 % 1012,8 hPa 0,0 l/m 2 min 0 min 581 W/m 6,4 km/h (2 Bft) 97,87 %
24.07.2019 17:24 39,9 C 43,3 C 36,7 C 34 % 1012,8 hPa 0,0 l/m 2 min 0 min 574 W/m 3,2 km/h (1 Bft) 94,00 %
24.07.2019 17:26 39,9 C 42,8 C 36,7 C 32 % 1012,8 hPa 0,0 l/m 2 min 0 min 568 W/m 9,7 km/h (2 Bft) 97,14 %
24.07.2019 17:28 39,9 C 42,2 C 37,2 C 31 % 1012,8 hPa 0,0 l/m 2 min 0 min 566 W/m 12,9 km/h (3 Bft) 94,34 %
24.07.2019 17:30 39,9 C 42,8 C 37,8 C 30 % 1012,8 hPa 0,0 l/m 2 min 0 min 559 W/m 6,4 km/h (2 Bft) 90,00 %
24.07.2019 17:32 40,0 C 42,2 C 37,8 C 30 % 1012,8 hPa 0,0 l/m 2 min 0 min 550 W/m 9,7 km/h (2 Bft) 95,92 %
24.07.2019 17:34 40,1 C 42,8 C 37,8 C 32 % 1012,8 hPa 0,0 l/m 2 min 0 min 544 W/m 6,4 km/h (2 Bft) 95,74 %
24.07.2019 17:36 40,1 C 42,8 C 37,2 C 32 % 1012,7 hPa 0,0 l/m 2 min 0 min 538 W/m 6,4 km/h (2 Bft) 94,29 %
24.07.2019 17:38 40,1 C 42,8 C 37,2 C 31 % 1012,7 hPa 0,0 l/m 2 min 0 min 534 W/m 6,4 km/h (2 Bft) 95,74 %
24.07.2019 17:40 40,1 C 42,2 C 37,2 C 30 % 1012,8 hPa 0,0 l/m 2 min 0 min 530 W/m 9,7 km/h (2 Bft) 95,74 %
24.07.2019 17:42 40,1 C 42,8 C 37,2 C 32 % 1012,7 hPa 0,0 l/m 2 min 0 min 527 W/m 6,4 km/h (2 Bft) 91,49 %
24.07.2019 17:44 40,1 C 42,8 C 36,7 C 32 % 1012,8 hPa 0,0 l/m 2 min 0 min 524 W/m 3,2 km/h (1 Bft) 94,23 %
24.07.2019 17:46 40,2 C 42,8 C 36,7 C 37 % 1012,7 hPa 0,0 l/m 2 min 0 min 519 W/m 3,2 km/h (1 Bft) 95,74 %
24.07.2019 17:48 40,1 C 42,8 C 37,2 C 31 % 1012,7 hPa 0,0 l/m 2 min 0 min 513 W/m 6,4 km/h (2 Bft) 98,00 %
24.07.2019 17:50 40,1 C 42,2 C 38,3 C 30 % 1012,7 hPa 0,0 l/m 2 min 0 min 509 W/m 6,4 km/h (2 Bft) 95,74 %
24.07.2019 17:52 40,1 C 42,8 C 38,9 C 30 % 1012,7 hPa 0,0 l/m 2 min 0 min 503 W/m 6,4 km/h (2 Bft) 89,80 %
24.07.2019 17:54 40,2 C 42,8 C 38,9 C 34 % 1012,7 hPa 0,0 l/m 2 min 0 min 496 W/m 3,2 km/h (1 Bft) 94,44 %
24.07.2019 17:56 40,1 C 42,8 C 38,3 C 31 % 1012,6 hPa 0,0 l/m 2 min 0 min 491 W/m 9,7 km/h (2 Bft) 98,08 %
24.07.2019 17:58 40,2 C 42,8 C 37,8 C 32 % 1012,6 hPa 0,0 l/m 2 min 0 min 485 W/m 6,4 km/h (2 Bft) 98,00 %
24.07.2019 18:00 40,2 C 41,7 C 37,2 C 30 % 1012,6 hPa 0,0 l/m 2 min 0 min 475 W/m 9,7 km/h (2 Bft) 96,00 %
24.07.2019 18:02 40,2 C 42,8 C 37,2 C 31 % 1012,5 hPa 0,0 l/m 2 min 0 min 469 W/m 6,4 km/h (2 Bft) 91,43 %
24.07.2019 18:04 40,2 C 43,3 C 36,7 C 31 % 1012,5 hPa 0,0 l/m 2 min 0 min 461 W/m 3,2 km/h (1 Bft) 94,34 %
24.07.2019 18:08 40,2 C 42,2 C 37,2 C 30 % 1012,6 hPa 0,0 l/m 4 min 0 min 450 W/m 9,7 km/h (2 Bft) 96,88 %
24.07.2019 18:10 40,2 C 41,7 C 36,7 C 31 % 1012,6 hPa 0,0 l/m 2 min 0 min 441 W/m 9,7 km/h (2 Bft) 93,62 %
24.07.2019 18:12 40,2 C 41,1 C 36,7 C 31 % 1012,5 hPa 0,0 l/m 2 min 0 min 437 W/m 9,7 km/h (2 Bft) 95,74 %
24.07.2019 18:14 40,1 C 41,1 C 36,7 C 31 % 1012,6 hPa 0,0 l/m 2 min 0 min 430 W/m 6,4 km/h (2 Bft) 98,00 %
24.07.2019 18:16 40,1 C 41,7 C 36,1 C 31 % 1012,6 hPa 0,0 l/m 2 min 0 min 423 W/m 6,4 km/h (2 Bft) 100,00 %
24.07.2019 18:18 40,0 C 42,2 C 36,1 C 33 % 1012,6 hPa 0,0 l/m 2 min 0 min 416 W/m 3,2 km/h (1 Bft) 100,00 %
24.07.2019 18:20 39,9 C 42,8 C 36,1 C 31 % 1012,6 hPa 0,0 l/m 2 min 0 min 411 W/m 3,2 km/h (1 Bft) 100,00 %
24.07.2019 18:22 39,9 C 41,7 C 35,6 C 34 % 1012,6 hPa 0,0 l/m 2 min 0 min 405 W/m 6,4 km/h (2 Bft) 96,00 %
24.07.2019 18:24 39,9 C 42,2 C 35,6 C 32 % 1012,5 hPa 0,0 l/m 2 min 0 min 397 W/m 3,2 km/h (1 Bft) 100,00 %
24.07.2019 18:26 39,8 C 41,7 C 36,1 C 36 % 1012,5 hPa 0,0 l/m 2 min 0 min 392 W/m 3,2 km/h (1 Bft) 100,00 %
24.07.2019 18:28 39,8 C 41,7 C 36,7 C 31 % 1012,6 hPa 0,0 l/m 2 min 0 min 387 W/m 6,4 km/h (2 Bft) 97,87 %
24.07.2019 18:30 39,7 C 41,7 C 37,2 C 31 % 1012,6 hPa 0,0 l/m 2 min 0 min 378 W/m 6,4 km/h (2 Bft) 100,00 %
24.07.2019 18:32 39,7 C 41,7 C 36,7 C 30 % 1012,6 hPa 0,0 l/m 2 min 0 min 371 W/m 6,4 km/h (2 Bft) 100,00 %
24.07.2019 18:34 39,8 C 41,7 C 36,1 C 31 % 1012,5 hPa 0,0 l/m 2 min 0 min 366 W/m 6,4 km/h (2 Bft) 96,00 %
24.07.2019 18:36 39,8 C 41,7 C 36,1 C 30 % 1012,5 hPa 0,0 l/m 2 min 0 min 360 W/m 6,4 km/h (2 Bft) 98,00 %
24.07.2019 18:38 39,8 C 41,7 C 36,1 C 30 % 1012,5 hPa 0,0 l/m 2 min 0 min 353 W/m 6,4 km/h (2 Bft) 100,00 %
24.07.2019 18:40 39,9 C 42,8 C 36,1 C 32 % 1012,5 hPa 0,0 l/m 2 min 0 min 347 W/m 3,2 km/h (1 Bft) 100,00 %
24.07.2019 18:42 39,9 C 42,2 C 35,6 C 32 % 1012,5 hPa 0,0 l/m 2 min 0 min 342 W/m 6,4 km/h (2 Bft) 97,96 %
24.07.2019 18:44 39,9 C 41,7 C 35,6 C 30 % 1012,5 hPa 0,0 l/m 2 min 0 min 332 W/m 6,4 km/h (2 Bft) 100,00 %
24.07.2019 18:46 39,9 C 41,7 C 34,4 C 33 % 1012,5 hPa 0,0 l/m 2 min 0 min 326 W/m 3,2 km/h (1 Bft) 100,00 %
24.07.2019 18:48 39,9 C 41,7 C 34,4 C 39 % 1012,5 hPa 0,0 l/m 2 min 0 min 323 W/m 3,2 km/h (1 Bft) 97,14 %
24.07.2019 18:50 39,8 C 41,1 C 33,9 C 34 % 1012,5 hPa 0,0 l/m 2 min 0 min 315 W/m 3,2 km/h (1 Bft) 98,11 %
24.07.2019 18:52 39,7 C 40,6 C 33,9 C 32 % 1012,5 hPa 0,0 l/m 2 min 0 min 309 W/m 3,2 km/h (1 Bft) 97,87 %
24.07.2019 18:54 39,7 C 41,1 C 33,9 C 35 % 1012,4 hPa 0,0 l/m 2 min 0 min 303 W/m 3,2 km/h (1 Bft) 100,00 %
24.07.2019 18:56 39,6 C 41,1 C 33,3 C 35 % 1012,5 hPa 0,0 l/m 2 min 0 min 297 W/m 3,2 km/h (1 Bft) 100,00 %
24.07.2019 18:58 39,6 C 41,1 C 33,3 C 33 % 1012,5 hPa 0,0 l/m 2 min 0 min 288 W/m 3,2 km/h (1 Bft) 98,00 %
24.07.2019 19:00 39,5 C 41,1 C 33,3 C 32 % 1012,5 hPa 0,0 l/m 2 min 0 min 283 W/m 3,2 km/h (1 Bft) 97,14 %
24.07.2019 19:02 39,5 C 41,1 C 33,3 C 33 % 1012,5 hPa 0,0 l/m 2 min 0 min 277 W/m 3,2 km/h (1 Bft) 100,00 %
24.07.2019 19:04 39,4 C 40,6 C 32,8 C 33 % 1012,5 hPa 0,0 l/m 2 min 0 min 271 W/m 3,2 km/h (1 Bft) 100,00 %
24.07.2019 19:06 39,4 C 41,1 C 32,8 C 35 % 1012,5 hPa 0,0 l/m 2 min 0 min 265 W/m 3,2 km/h (1 Bft) 100,00 %
24.07.2019 19:08 39,3 C 41,1 C 32,8 C 32 % 1012,5 hPa 0,0 l/m 2 min 0 min 260 W/m 3,2 km/h (1 Bft) 96,23 %
24.07.2019 19:10 39,3 C 41,1 C 32,8 C 35 % 1012,5 hPa 0,0 l/m 2 min 0 min 253 W/m 3,2 km/h (1 Bft) 100,00 %
24.07.2019 19:12 39,2 C 40,6 C 32,2 C 37 % 1012,5 hPa 0,0 l/m 2 min 0 min 246 W/m 0,0 km/h (0 Bft) 100,00 %
24.07.2019 19:14 39,1 C 40,6 C 32,2 C 34 % 1012,5 hPa 0,0 l/m 2 min 0 min 240 W/m 0,0 km/h (0 Bft) 100,00 %
24.07.2019 19:16 39,1 C 40,6 C 32,2 C 35 % 1012,6 hPa 0,0 l/m 2 min 0 min 234 W/m 0,0 km/h (0 Bft) 100,00 %
24.07.2019 19:18 39,0 C 40,6 C 32,2 C 34 % 1012,6 hPa 0,0 l/m 2 min 0 min 229 W/m 0,0 km/h (0 Bft) 100,00 %
24.07.2019 19:20 38,9 C 40,0 C 31,7 C 34 % 1012,6 hPa 0,0 l/m 2 min 0 min 221 W/m 0,0 km/h (0 Bft) 100,00 %
24.07.2019 19:22 38,8 C 40,0 C 31,1 C 38 % 1012,5 hPa 0,0 l/m 2 min 0 min 215 W/m 0,0 km/h (0 Bft) 98,00 %
24.07.2019 19:24 38,8 C 40,0 C 31,1 C 40 % 1012,6 hPa 0,0 l/m 2 min 0 min 208 W/m 0,0 km/h (0 Bft) 100,00 %
24.07.2019 19:26 38,7 C 40,0 C 30,6 C 37 % 1012,6 hPa 0,0 l/m 2 min 0 min 180 W/m 3,2 km/h (1 Bft) 100,00 %
24.07.2019 19:28 38,7 C 39,4 C 30,6 C 34 % 1012,6 hPa 0,0 l/m 2 min 0 min 174 W/m 3,2 km/h (1 Bft) 100,00 %
24.07.2019 19:30 38,6 C 38,9 C 30,6 C 35 % 1012,6 hPa 0,0 l/m 2 min 0 min 177 W/m 3,2 km/h (1 Bft) 100,00 %
24.07.2019 19:32 38,6 C 37,8 C 30,0 C 39 % 1012,6 hPa 0,0 l/m 2 min 0 min 174 W/m 0,0 km/h (0 Bft) 100,00 %
24.07.2019 19:34 38,5 C 37,2 C 30,0 C 35 % 1012,6 hPa 0,0 l/m 0 min 0 min 126 W/m 3,2 km/h (1 Bft) 98,00 %
24.07.2019 19:36 38,4 C 36,7 C 29,4 C 37 % 1012,6 hPa 0,0 l/m 0 min 0 min 88 W/m 3,2 km/h (1 Bft) 100,00 %
24.07.2019 19:38 38,3 C 36,7 C 28,9 C 41 % 1012,6 hPa 0,0 l/m 0 min 0 min 86 W/m 3,2 km/h (1 Bft) 100,00 %
24.07.2019 19:40 38,3 C 36,1 C 28,9 C 43 % 1012,6 hPa 0,0 l/m 0 min 0 min 84 W/m 0,0 km/h (0 Bft) 97,96 %
24.07.2019 19:42 38,2 C 35,6 C 28,9 C 39 % 1012,7 hPa 0,0 l/m 0 min 0 min 81 W/m 3,2 km/h (1 Bft) 98,00 %
24.07.2019 19:44 38,0 C 35,0 C 28,9 C 41 % 1012,6 hPa 0,0 l/m 0 min 0 min 82 W/m 3,2 km/h (1 Bft) 100,00 %
24.07.2019 19:46 37,9 C 35,0 C 28,9 C 41 % 1012,7 hPa 0,0 l/m 0 min 0 min 81 W/m 0,0 km/h (0 Bft) 100,00 %
24.07.2019 19:48 37,8 C 35,0 C 28,3 C 43 % 1012,6 hPa 0,0 l/m 0 min 0 min 80 W/m 3,2 km/h (1 Bft) 100,00 %
24.07.2019 19:50 37,7 C 34,4 C 28,3 C 44 % 1012,7 hPa 0,0 l/m 0 min 0 min 78 W/m 0,0 km/h (0 Bft) 98,00 %
24.07.2019 19:52 37,5 C 34,4 C 28,3 C 47 % 1012,7 hPa 0,0 l/m 0 min 0 min 76 W/m 3,2 km/h (1 Bft) 100,00 %
24.07.2019 19:54 37,3 C 33,9 C 28,3 C 45 % 1012,7 hPa 0,0 l/m 0 min 0 min 76 W/m 3,2 km/h (1 Bft) 97,14 %
24.07.2019 19:56 37,2 C 34,4 C 28,3 C 44 % 1012,7 hPa 0,0 l/m 0 min 0 min 72 W/m 0,0 km/h (0 Bft) 96,23 %
24.07.2019 19:58 37,1 C 33,9 C 28,3 C 46 % 1012,7 hPa 0,0 l/m 0 min 0 min 70 W/m 0,0 km/h (0 Bft) 93,62 %
24.07.2019 20:00 36,9 C 33,9 C 28,3 C 47 % 1012,7 hPa 0,0 l/m 0 min 0 min 69 W/m 3,2 km/h (1 Bft) 97,87 %
24.07.2019 20:02 36,8 C 33,9 C 28,3 C 49 % 1012,7 hPa 0,0 l/m 0 min 0 min 65 W/m 0,0 km/h (0 Bft) 97,67 %
24.07.2019 20:04 36,6 C 33,3 C 27,8 C 50 % 1012,7 hPa 0,0 l/m 0 min 0 min 64 W/m 0,0 km/h (0 Bft) 94,00 %
24.07.2019 20:06 36,4 C 33,3 C 27,8 C 49 % 1012,7 hPa 0,0 l/m 0 min 0 min 63 W/m 0,0 km/h (0 Bft) 97,87 %
24.07.2019 20:08 36,3 C 32,8 C 27,8 C 51 % 1012,8 hPa 0,0 l/m 0 min 0 min 62 W/m 3,2 km/h (1 Bft) 97,87 %
24.07.2019 20:10 36,1 C 32,8 C 27,8 C 50 % 1012,7 hPa 0,0 l/m 0 min 0 min 61 W/m 0,0 km/h (0 Bft) 97,87 %
24.07.2019 20:12 35,9 C 32,8 C 27,8 C 48 % 1012,7 hPa 0,0 l/m 0 min 0 min 59 W/m 0,0 km/h (0 Bft) 97,87 %
24.07.2019 20:14 35,8 C 32,8 C 27,8 C 49 % 1012,7 hPa 0,0 l/m 0 min 0 min 56 W/m 0,0 km/h (0 Bft) 97,87 %
24.07.2019 20:16 35,7 C 32,2 C 27,8 C 50 % 1012,7 hPa 0,0 l/m 0 min 0 min 55 W/m 0,0 km/h (0 Bft) 97,56 %
24.07.2019 20:18 35,5 C 32,2 C 27,8 C 50 % 1012,7 hPa 0,0 l/m 0 min 0 min 53 W/m 0,0 km/h (0 Bft) 97,87 %
24.07.2019 20:20 35,3 C 32,2 C 27,2 C 50 % 1012,8 hPa 0,0 l/m 0 min 0 min 52 W/m 0,0 km/h (0 Bft) 93,62 %
24.07.2019 20:22 35,2 C 31,7 C 27,2 C 52 % 1012,8 hPa 0,0 l/m 0 min 0 min 50 W/m 0,0 km/h (0 Bft) 95,74 %
24.07.2019 20:24 35,1 C 31,7 C 27,2 C 54 % 1012,8 hPa 0,0 l/m 0 min 0 min 48 W/m 0,0 km/h (0 Bft) 97,87 %
24.07.2019 20:26 34,9 C 31,7 C 27,2 C 52 % 1012,7 hPa 0,0 l/m 0 min 0 min 46 W/m 0,0 km/h (0 Bft) 97,83 %
24.07.2019 20:28 34,8 C 31,1 C 27,2 C 53 % 1012,7 hPa 0,0 l/m 0 min 0 min 44 W/m 3,2 km/h (1 Bft) 97,87 %
24.07.2019 20:30 34,6 C 31,1 C 27,2 C 54 % 1012,7 hPa 0,0 l/m 0 min 0 min 42 W/m 3,2 km/h (1 Bft) 95,74 %
24.07.2019 20:32 34,5 C 31,1 C 27,2 C 53 % 1012,7 hPa 0,0 l/m 0 min 0 min 40 W/m 0,0 km/h (0 Bft) 97,96 %
24.07.2019 20:34 34,4 C 31,1 C 26,7 C 54 % 1012,6 hPa 0,0 l/m 0 min 0 min 39 W/m 0,0 km/h (0 Bft) 97,92 %
24.07.2019 20:36 34,2 C 31,1 C 26,7 C 51 % 1012,7 hPa 0,0 l/m 0 min 0 min 37 W/m 0,0 km/h (0 Bft) 95,74 %
24.07.2019 20:38 34,1 C 30,6 C 26,7 C 53 % 1012,7 hPa 0,0 l/m 0 min 0 min 35 W/m 0,0 km/h (0 Bft) 100,00 %
24.07.2019 20:40 33,9 C 30,6 C 26,7 C 52 % 1012,7 hPa 0,0 l/m 0 min 0 min 34 W/m 0,0 km/h (0 Bft) 95,83 %
24.07.2019 20:42 33,8 C 30,6 C 26,7 C 52 % 1012,7 hPa 0,0 l/m 0 min 0 min 33 W/m 0,0 km/h (0 Bft) 100,00 %
24.07.2019 20:44 33,7 C 30,6 C 26,7 C 53 % 1012,7 hPa 0,0 l/m 0 min 0 min 32 W/m 0,0 km/h (0 Bft) 100,00 %
24.07.2019 20:46 33,5 C 30,6 C 26,1 C 52 % 1012,7 hPa 0,0 l/m 0 min 0 min 30 W/m 0,0 km/h (0 Bft) 100,00 %
24.07.2019 20:48 33,4 C 30,6 C 26,1 C 53 % 1012,7 hPa 0,0 l/m 0 min 0 min 28 W/m 0,0 km/h (0 Bft) 100,00 %
24.07.2019 20:50 33,3 C 30,0 C 26,1 C 53 % 1012,8 hPa 0,0 l/m 0 min 0 min 26 W/m 0,0 km/h (0 Bft) 97,83 %
24.07.2019 20:52 33,2 C 30,0 C 26,1 C 54 % 1012,8 hPa 0,0 l/m 0 min 0 min 25 W/m 0,0 km/h (0 Bft) 100,00 %
24.07.2019 20:54 33,1 C 30,0 C 26,1 C 54 % 1012,8 hPa 0,0 l/m 0 min 0 min 25 W/m 0,0 km/h (0 Bft) 100,00 %
24.07.2019 20:56 33,0 C 30,0 C 26,1 C 55 % 1012,8 hPa 0,0 l/m 0 min 0 min 23 W/m 0,0 km/h (0 Bft) 100,00 %
24.07.2019 20:58 32,9 C 30,0 C 26,1 C 54 % 1012,8 hPa 0,0 l/m 0 min 0 min 22 W/m 0,0 km/h (0 Bft) 100,00 %
24.07.2019 21:00 32,8 C 29,4 C 26,1 C 55 % 1012,8 hPa 0,0 l/m 0 min 0 min 21 W/m 0,0 km/h (0 Bft) 100,00 %
24.07.2019 21:02 32,7 C 29,4 C 26,1 C 55 % 1012,9 hPa 0,0 l/m 0 min 0 min 19 W/m 0,0 km/h (0 Bft) 97,92 %
24.07.2019 21:04 32,6 C 29,4 C 26,1 C 56 % 1012,9 hPa 0,0 l/m 0 min 0 min 18 W/m 0,0 km/h (0 Bft) 100,00 %
24.07.2019 21:06 32,5 C 29,4 C 26,1 C 55 % 1012,9 hPa 0,0 l/m 0 min 0 min 18 W/m 0,0 km/h (0 Bft) 95,74 %
24.07.2019 21:08 32,4 C 29,4 C 26,1 C 55 % 1012,9 hPa 0,0 l/m 0 min 0 min 16 W/m 0,0 km/h (0 Bft) 97,87 %
24.07.2019 21:10 32,3 C 29,4 C 26,1 C 56 % 1012,9 hPa 0,0 l/m 0 min 0 min 15 W/m 0,0 km/h (0 Bft) 97,87 %
24.07.2019 21:12 32,2 C 28,9 C 25,6 C 57 % 1012,9 hPa 0,0 l/m 0 min 0 min 14 W/m 0,0 km/h (0 Bft) 100,00 %
24.07.2019 21:14 32,2 C 28,9 C 25,6 C 57 % 1012,9 hPa 0,0 l/m 0 min 0 min 13 W/m 0,0 km/h (0 Bft) 100,00 %
24.07.2019 21:16 32,1 C 28,9 C 25,6 C 58 % 1013,0 hPa 0,0 l/m 0 min 0 min 12 W/m 0,0 km/h (0 Bft) 95,24 %
24.07.2019 21:18 31,9 C 28,9 C 25,6 C 58 % 1013,0 hPa 0,0 l/m 0 min 0 min 11 W/m 0,0 km/h (0 Bft) 100,00 %
24.07.2019 21:20 31,9 C 28,9 C 25,6 C 59 % 1013,0 hPa 0,0 l/m 0 min 0 min 10 W/m 0,0 km/h (0 Bft) 95,74 %
24.07.2019 21:22 31,8 C 28,3 C 25,6 C 58 % 1013,0 hPa 0,0 l/m 0 min 0 min 8 W/m 0,0 km/h (0 Bft) 97,92 %
24.07.2019 21:24 31,7 C 28,3 C 25,6 C 57 % 1013,0 hPa 0,0 l/m 0 min 0 min 7 W/m 0,0 km/h (0 Bft) 95,65 %
24.07.2019 21:26 31,6 C 28,3 C 25,6 C 58 % 1013,1 hPa 0,0 l/m 0 min 0 min 6 W/m 0,0 km/h (0 Bft) 95,74 %
24.07.2019 21:28 31,5 C 28,3 C 25,6 C 58 % 1013,1 hPa 0,0 l/m 0 min 0 min 5 W/m 0,0 km/h (0 Bft) 95,83 %
24.07.2019 21:30 31,4 C 27,8 C 25,0 C 58 % 1013,2 hPa 0,0 l/m 0 min 0 min 3 W/m 0,0 km/h (0 Bft) 97,92 %
24.07.2019 21:32 31,3 C 27,8 C 25,0 C 59 % 1013,2 hPa 0,0 l/m 0 min 0 min 0 W/m 0,0 km/h (0 Bft) 93,75 %
24.07.2019 21:34 31,2 C 27,8 C 25,0 C 58 % 1013,2 hPa 0,0 l/m 0 min 0 min 0 W/m 0,0 km/h (0 Bft) 95,74 %
24.07.2019 21:36 31,1 C 27,8 C 25,0 C 58 % 1013,3 hPa 0